Regional Weather Roundup
Issued by NWS

Home | Current Version | Previous Version | Text Only | Print | Product List | Glossary On
Versions: 1 2 3 4 5 6 7 8 9 10 11 12 13 14 15 16 17 18 19 20 21 22 23 24 25 26 27 28 29 30 31 32 33 34 35 36 37 38 39 40 41 42 43 44 45 46 47 48 49 50
000
ASUS43 KTOP 271508
RWRKS

WEATHER ROUNDUP FOR KANSAS
NATIONAL WEATHER SERVICE GOODLAND KS
900 AM CST TUE JAN 27 2015

NOTE:  "FAIR" INDICATES FEW OR NO CLOUDS BELOW 12,000 FEET WITH NO
SIGNIFICANT WEATHER AND/OR OBSTRUCTIONS TO VISIBILITY.

KSZ001>006-013>018-027>032-041>047-271600-
NORTHWEST KANSAS

CITY           SKY/WX    TMP DP  RH WIND       PRES   REMARKS
GOODLAND       CLEAR     50  27  40 W13       30.11R
HAYS           SUNNY     37  27  65 W9        30.09R
HILL CITY      SUNNY     39  30  70 W7        30.09R
RUSSELL        SUNNY     36  31  82 SW8       30.07S
$$

KSZ061>065-074>080-084>089-271600-
SOUTHWEST KANSAS

CITY           SKY/WX    TMP DP  RH WIND       PRES   REMARKS
DODGE CITY     SUNNY     47  31  53 W8        30.14R
ELKHART          N/A     46  29  51 W9          N/A
GARDEN CITY    MOSUNNY   40  32  73 W8        30.13R
GREAT BEND     SUNNY     39  30  70 CALM      30.11R
LIBERAL        SUNNY     43  32  65 NW8       30.19R
PRATT          SUNNY     45  34  65 W8        30.12S
$$

KSZ066>073-081>083-090>101-271600-
SOUTHEAST KANSAS

CITY           SKY/WX    TMP DP  RH WIND       PRES   REMARKS
CHANUTE        SUNNY     41  35  79 CALM      30.16R
COFFEYVILLE    FAIR      39  34  82 CALM      30.17R
HUTCHINSON     SUNNY     39  33  79 CALM      30.13R
MEDICINE LODGE   N/A     42  33  70 CALM      30.13S
NEWTON         SUNNY     45  30  57 SE10      30.14S
PARSONS        SUNNY     41  35  79 CALM      30.17R
WICHITA INTL   SUNNY     41  34  76 SW3       30.14R
WICHITA JABRA  SUNNY     44  34  67 SE7       30.13S
WICHITA MCCONL SUNNY     46  33  60 SE7       30.14R
WINFIELD       SUNNY     41  32  70 SE3       30.15R
$$

KSZ007>012-019>026-033>040-048>060-102>105-271600-
NORTHEAST KANSAS

CITY           SKY/WX    TMP DP  RH WIND       PRES   REMARKS
CONCORDIA      SUNNY     35  30  82 E3        30.10R
EMPORIA        SUNNY     37  30  75 SE3       30.14R
LAWRENCE       SUNNY     31  28  89 CALM      30.16R
MANHATTAN      SUNNY     32  27  81 CALM      30.14R
MARYSVILLE     MOSUNNY   32  28  86 CALM      30.13R
OLATHE IND     SUNNY     37  32  82 CALM      30.16R
OLATHE EXE     SUNNY     41  33  73 CALM      30.15R
SALINA         SUNNY     36  30  79 S5        30.11S
TOPEKA BILLARD SUNNY     33  29  85 CALM      30.16S
TOPEKA FORBES  SUNNY     37  30  75 CALM      30.14R
$$



USA.gov is the U.S. government's official web portal to all federal, state and local government web resources and services.